GW1804 Weather Reports


time (UTC)temp
F
wind
direction
speed
knots
gust
knots
rain 1hr
in
rain 24hr
in
rain mn
in
humidity
%
barometer
mb
20260901081032 67 0 0.0 0.9 0.00 0.00 0.00 88 1014.2
20260901080533 67 0 0.0 0.9 0.00 0.00 0.00 88 1014.2
20260901080114 67 0 0.0 0.0 0.00 0.00 0.00 88 1014.2
20260901075533 67 0 0.0 0.0 0.00 0.00 0.00 88 1014.2
20260901075036 68 0 0.0 0.9 0.00 0.00 0.00 88 1014.2
20260901074604 68 0 0.0 0.9 0.00 0.00 0.00 88 1014.1
20260901074039 68 0 0.0 0.9 0.00 0.00 0.00 87 1014.1
20260901073535 68 0 0.0 0.0 0.00 0.00 0.00 87 1014.3
20260901073059 68 0 0.0 0.0 0.00 0.00 0.00 87 1014.3
20260901072532 68 0 0.0 0.0 0.00 0.00 0.00 87 1014.3
20260901072038 68 0 0.0 0.0 0.00 0.00 0.00 87 1014.2
20260901071553 68 0 0.0 0.0 0.00 0.00 0.00 87 1014.3
20260901071036 68 0 0.0 0.9 0.00 0.00 0.00 87 1014.3
20260901070536 68 0 0.0 0.9 0.00 0.00 0.00 87 1014.3
20260901070054 68 0 0.0 0.9 0.00 0.00 0.00 87 1014.2
20260901065532 68 0 0.0 0.0 0.00 0.00 0.00 87 1014.3
20260901065032 68 0 0.0 0.0 0.00 0.00 0.00 87 1014.2
20260901064559 68 0 0.0 0.0 0.00 0.00 0.00 87 1014.2
20260901064036 68 0 0.0 0.0 0.00 0.00 0.00 87 1014.2
20260901063535 69 0 0.0 0.0 0.00 0.00 0.00 87 1014.2
20260901063102 69 0 0.0 0.9 0.00 0.00 0.00 87 1014.1
20260901062535 69 0 0.0 0.9 0.00 0.00 0.00 87 1014.1
20260901062035 69 0 0.0 0.9 0.00 0.00 0.00 87 1014.2
20260901061556 69 0 0.0 0.0 0.00 0.00 0.00 87 1014.1
20260901061036 69 0 0.0 0.0 0.00 0.00 0.00 87 1014.1
20260901060536 69 0 0.0 0.0 0.00 0.00 0.00 87 1014.2
20260901060052 69 0 0.0 0.0 0.00 0.00 0.00 87 1014.1
20260901055531 69 0 0.0 0.0 0.00 0.00 0.00 87 1014.1
20260901055033 69 0 0.0 0.0 0.00 0.00 0.00 87 1014.2
20260901054600 69 0 0.0 0.0 0.00 0.00 0.00 87 1014.2
20260901054035 69 0 0.0 0.0 0.00 0.00 0.00 87 1014.1
20260901053535 69 0 0.0 0.0 0.00 0.00 0.00 87 1014.1
20260901053104 69 0 0.0 0.0 0.00 0.00 0.00 86 1014.1
20260901052533 69 0 0.0 0.9 0.00 0.00 0.00 86 1014.1
20260901052031 69 0 0.0 0.9 0.00 0.00 0.00 86 1014.1
20260901051554 69 0 0.0 0.9 0.00 0.00 0.00 86 1014.0
20260901051031 69 0 0.0 0.9 0.00 0.00 0.00 86 1014.1
20260901050531 69 0 0.0 0.0 0.00 0.00 0.00 86 1014.0
20260901050059 69 0 0.0 0.0 0.00 0.00 0.00 86 1014.0
20260901045533 69 0 0.0 0.0 0.00 0.00 0.00 86 1014.0
20260901045035 69 0 0.0 0.0 0.00 0.00 0.00 86 1014.1
20260901044604 69 0 0.0 0.0 0.00 0.00 0.00 86 1014.0
20260901044035 69 0 0.0 0.0 0.00 0.00 0.00 86 1014.1
20260901043532 69 0 0.0 0.0 0.00 0.00 0.00 85 1014.1
20260901043056 69 0 0.0 0.0 0.00 0.00 0.00 85 1014.1
20260901042535 69 0 0.0 0.0 0.00 0.00 0.00 86 1014.0
20260901042037 69 0 0.0 0.0 0.00 0.00 0.00 86 1014.0
20260901041617 69 0 0.0 0.0 0.00 0.00 0.00 86 1014.0
20260901041031 69 0 0.0 0.9 0.00 0.00 0.00 86 1014.0
20260901040533 70 0 0.0 0.9 0.00 0.00 0.00 86 1013.9
20260901040136 70 0 0.0 0.9 0.00 0.00 0.00 86 1013.9
20260901035534 70 0 0.0 1.7 0.00 0.00 0.00 86 1013.9
20260901035032 70 0 0.0 1.7 0.00 0.00 0.00 86 1013.8
20260901034556 70 205 0.0 1.7 0.00 0.00 0.00 85 1013.8
20260901034035 70 0 0.0 1.7 0.00 0.00 0.00 85 1013.7
20260901033535 70 0 0.0 0.9 0.00 0.00 0.00 85 1013.6
20260901033053 70 0 0.0 0.9 0.00 0.00 0.00 85 1013.6
20260901032535 70 215 0.0 1.7 0.00 0.00 0.00 84 1013.5
20260901032035 70 0 0.0 1.7 0.00 0.00 0.00 84 1013.4
20260901031551 70 0 0.0 1.7 0.00 0.00 0.00 83 1013.4
20260901031032 70 0 0.0 1.7 0.00 0.00 0.00 83 1013.4
20260901030535 70 261 0.0 0.9 0.00 0.00 0.00 83 1013.3
20260901030106 70 0 0.0 0.9 0.00 0.00 0.00 83 1013.3
20260901025531 70 0 0.0 1.7 0.00 0.00 0.00 82 1013.2
20260901025034 71 0 0.0 1.7 0.00 0.00 0.00 82 1013.1
20260901024556 71 261 0.0 1.7 0.00 0.00 0.00 82 1013.0
20260901024034 71 0 0.0 2.6 0.00 0.00 0.00 82 1013.0
20260901023530 71 261 0.0 2.6 0.00 0.00 0.00 82 1013.0
20260901023101 71 312 0.9 2.6 0.00 0.00 0.00 81 1012.9
20260901022534 72 238 0.9 3.5 0.00 0.00 0.00 81 1013.0
20260901022034 72 277 0.9 3.5 0.00 0.00 0.00 81 1012.9
20260901021550 72 253 0.9 3.5 0.00 0.00 0.00 81 1012.9
20260901021035 72 290 0.9 5.2 0.00 0.00 0.00 81 1012.8
20260901020533 73 321 1.7 5.2 0.00 0.00 0.00 80 1012.8
20260901020101 73 283 1.7 3.5 0.00 0.00 0.00 80 1012.7
20260901015533 73 288 0.9 4.3 0.00 0.00 0.00 80 1012.6
20260901015032 74 286 1.7 4.3 0.00 0.00 0.00 79 1012.6
20260901014557 74 289 1.7 5.2 0.00 0.00 0.00 79 1012.5
20260901014033 74 313 1.7 5.2 0.00 0.00 0.00 79 1012.5
20260901013532 74 280 1.7 5.2 0.00 0.00 0.00 79 1012.5
20260901013058 74 277 1.7 5.2 0.00 0.00 0.00 78 1012.6
20260901012532 75 303 2.6 6.1 0.00 0.00 0.00 78 1012.6
20260901012032 75 300 1.7 6.1 0.00 0.00 0.00 78 1012.7
20260901011552 75 270 2.6 6.1 0.00 0.00 0.00 77 1012.8
20260901011032 75 275 1.7 7.8 0.00 0.00 0.00 77 1012.7
20260901010534 75 265 2.6 7.8 0.00 0.00 0.00 75 1012.7
20260901010106 76 309 2.6 6.1 0.00 0.00 0.00 75 1012.8
20260901005532 76 253 2.6 6.1 0.00 0.00 0.00 74 1012.8
20260901005032 76 300 2.6 6.1 0.00 0.00 0.00 74 1012.9
20260901004600 76 271 2.6 6.1 0.00 0.00 0.00 74 1012.9
20260901004032 76 286 3.5 6.1 0.00 0.00 0.00 74 1012.9
20260901003533 76 296 1.7 7.0 0.00 0.00 0.00 74 1012.9
20260901003059 76 309 2.6 7.0 0.00 0.00 0.00 75 1012.9
20260901002533 77 269 2.6 7.0 0.00 0.00 0.00 75 1012.9
20260901002033 76 292 2.6 7.0 0.00 0.00 0.00 75 1012.9
20260901001551 77 246 2.6 7.0 0.00 0.00 0.00 75 1012.9
20260901001034 77 284 2.6 7.0 0.00 0.00 0.00 76 1012.9
20260901000532 77 300 3.5 7.0 0.00 0.00 0.00 76 1012.9
20260901000104 77 294 2.6 7.0 0.00 0.00 0.00 76 1012.9
20260831235532 77 298 3.5 9.6 0.00 0.00 0.00 75 1012.8
20260831235033 77 284 2.6 9.6 0.00 0.00 0.00 76 1012.9
20260831234556 77 267 3.5 9.6 0.00 0.00 0.00 76 1013.0
20260831234032 77 244 2.6 7.0 0.00 0.00 0.00 77 1013.0
20260831233534 78 262 3.5 7.0 0.00 0.00 0.00 75 1013.1
20260831233055 77 310 2.6 7.8 0.00 0.00 0.00 76 1013.0
20260831232532 78 290 4.3 7.8 0.00 0.00 0.00 75 1013.0
20260831232033 78 289 2.6 7.8 0.00 0.00 0.00 75 1012.9
20260831231553 78 279 2.6 7.8 0.00 0.00 0.00 75 1012.9
20260831231035 78 244 4.3 9.6 0.00 0.00 0.00 75 1012.9
20260831230533 78 296 2.6 9.6 0.00 0.00 0.00 75 1012.9
20260831230113 78 266 3.5 9.6 0.00 0.00 0.00 75 1012.9
20260831225532 78 296 3.5 8.7 0.00 0.00 0.00 75 1012.9
20260831225033 78 319 3.5 8.7 0.00 0.00 0.00 75 1013.0
20260831224559 78 306 3.5 7.8 0.00 0.00 0.00 75 1013.0
20260831224032 78 325 3.5 8.7 0.00 0.00 0.00 75 1013.0
20260831223534 78 314 4.3 8.7 0.00 0.00 0.00 75 1013.0
20260831223107 78 294 4.3 8.7 0.00 0.00 0.00 75 1013.1
20260831222532 78 292 3.5 8.7 0.00 0.00 0.00 75 1013.1
20260831222033 78 277 4.3 8.7 0.00 0.00 0.00 75 1013.2
20260831221603 78 234 3.5 8.7 0.00 0.00 0.00 74 1013.3
20260831221032 78 281 3.5 8.7 0.00 0.00 0.00 75 1013.4
20260831220534 78 264 4.3 8.7 0.00 0.00 0.00 74 1013.4
20260831220100 79 273 4.3 7.8 0.00 0.00 0.00 73 1013.5
20260831215532 79 250 4.3 7.8 0.00 0.00 0.00 74 1013.4
20260831215032 79 304 4.3 7.8 0.00 0.00 0.00 73 1013.4
20260831214607 79 277 4.3 7.8 0.00 0.00 0.00 73 1013.4
20260831214032 79 261 2.6 7.8 0.00 0.00 0.00 74 1013.4
20260831213533 79 279 3.5 8.7 0.00 0.00 0.00 74 1013.5
20260831213053 79 224 3.5 8.7 0.00 0.00 0.00 74 1013.5
20260831212533 78 290 4.3 9.6 0.00 0.00 0.00 74 1013.5
20260831212033 78 330 3.5 9.6 0.00 0.00 0.00 74 1013.6
20260831211601 78 268 3.5 9.6 0.00 0.00 0.00 74 1013.6
20260831211035 79 360 3.5 8.7 0.00 0.00 0.00 74 1013.6
20260831210531 78 281 4.3 8.7 0.00 0.00 0.00 74 1013.8
20260831210057 78 292 3.5 8.7 0.00 0.00 0.00 75 1013.8
20260831205536 78 284 3.5 7.8 0.00 0.00 0.00 74 1013.8
20260831205036 78 252 3.5 8.7 0.00 0.00 0.00 74 1013.8
20260831204558 78 227 3.5 8.7 0.00 0.00 0.00 74 1013.9
20260831204039 78 260 3.5 7.8 0.00 0.00 0.00 74 1013.9
20260831203536 78 272 2.6 7.8 0.00 0.00 0.00 75 1013.9
20260831203050 78 255 4.3 10.4 0.00 0.00 0.00 75 1014.0
20260831202533 78 268 4.3 10.4 0.00 0.00 0.00 75 1013.9
20260831202036 78 224 2.6 8.7 0.00 0.00 0.00 76 1014.0
20260831201553 78 279 4.3 8.7 0.00 0.00 0.00 75 1014.0
20260831201036 78 312 3.5 7.8 0.00 0.00 0.00 75 1014.0
20260831200535 78 265 3.5 7.8 0.00 0.00 0.00 74 1014.0
20260831200110 78 266 3.5 7.8 0.00 0.00 0.00 74 1014.0
20260831195535 78 188 3.5 7.8 0.00 0.00 0.00 75 1014.0
20260831195037 78 248 3.5 7.8 0.00 0.00 0.00 75 1013.9
20260831194640 78 278 3.5 7.0 0.00 0.00 0.00 76 1014.0
20260831194037 78 265 3.5 7.8 0.00 0.00 0.00 76 1014.1
20260831193536 78 301 3.5 7.8 0.00 0.00 0.00 76 1014.0
20260831193100 78 277 3.5 7.8 0.00 0.00 0.00 75 1014.1
20260831192535 78 261 1.7 7.8 0.00 0.00 0.00 76 1014.1
20260831192035 78 277 3.5 7.8 0.00 0.00 0.00 76 1014.2
20260831191558 78 307 3.5 7.0 0.00 0.00 0.00 75 1014.1
20260831191040 78 263 2.6 7.0 0.00 0.00 0.00 77 1014.2
20260831190535 77 217 2.6 7.0 0.00 0.00 0.00 77 1014.2
20260831190109 77 267 3.5 9.6 0.00 0.00 0.00 77 1014.1
20260831185535 77 210 3.5 9.6 0.00 0.00 0.00 77 1014.1
20260831185035 77 247 3.5 7.8 0.00 0.00 0.00 77 1014.2
20260831184559 77 306 2.6 7.0 0.00 0.00 0.00 77 1014.1
20260831184034 77 250 2.6 7.0 0.00 0.00 0.00 77 1014.1
20260831183536 76 239 2.6 7.0 0.00 0.00 0.00 77 1014.2
20260831183110 76 292 2.6 7.8 0.00 0.00 0.00 78 1014.2
20260831182536 76 259 3.5 7.8 0.00 0.00 0.00 78 1014.2
20260831182033 76 219 3.5 7.8 0.00 0.00 0.00 78 1014.2
20260831181609 76 265 2.6 7.0 0.00 0.00 0.00 79 1014.1
20260831181036 76 298 2.6 7.0 0.00 0.00 0.00 79 1014.1
20260831180533 75 286 2.6 8.7 0.00 0.00 0.00 79 1014.1
20260831180115 75 302 3.5 8.7 0.00 0.00 0.00 78 1014.1
20260831175537 75 277 3.5 7.0 0.00 0.00 0.00 79 1014.1
20260831175037 75 222 2.6 7.0 0.00 0.00 0.00 79 1014.1
20260831174556 75 217 2.6 7.0 0.00 0.00 0.00 80 1014.0
20260831174036 75 236 2.6 7.0 0.00 0.00 0.00 79 1014.0
20260831173541 75 298 2.6 7.0 0.00 0.00 0.00 81 1013.9
20260831173054 75 256 2.6 7.0 0.00 0.00 0.00 81 1013.9
20260831172535 74 234 1.7 6.1 0.00 0.00 0.00 81 1013.9
20260831172035 74 273 2.6 6.1 0.00 0.00 0.00 81 1013.9
20260831171602 74 277 1.7 6.1 0.00 0.00 0.00 81 1013.9
20260831171035 74 273 2.6 6.1 0.00 0.00 0.00 81 1013.8
20260831170535 74 265 2.6 6.1 0.00 0.00 0.00 82 1013.8
20260831170101 74 265 2.6 5.2 0.00 0.00 0.00 82 1013.8
20260831165535 73 219 1.7 6.1 0.00 0.00 0.00 82 1013.8
20260831165035 73 317 2.6 6.1 0.00 0.00 0.00 81 1013.8
20260831164558 73 296 1.7 6.1 0.00 0.00 0.00 82 1013.8
20260831164037 73 293 2.6 6.1 0.00 0.00 0.00 82 1013.7
20260831163536 73 296 2.6 5.2 0.00 0.00 0.00 82 1013.7
20260831163103 73 297 1.7 5.2 0.00 0.00 0.00 83 1013.7
20260831162535 73 266 1.7 5.2 0.00 0.00 0.00 83 1013.7
20260831162035 73 263 1.7 5.2 0.00 0.00 0.00 83 1013.6
20260831161605 72 251 0.0 3.5 0.00 0.00 0.00 83 1013.6
20260831161035 72 0 0.0 3.5 0.00 0.00 0.00 83 1013.6
20260831160535 72 228 0.9 4.3 0.00 0.00 0.00 83 1013.5
20260831160059 72 0 0.9 4.3 0.00 0.00 0.00 84 1013.6
20260831155532 72 306 0.9 2.6 0.00 0.00 0.00 84 1013.6
20260831155036 71 288 0.0 3.5 0.00 0.00 0.00 84 1013.6
20260831154628 71 0 0.0 3.5 0.00 0.00 0.00 84 1013.7
20260831154036 71 246 0.9 3.5 0.00 0.00 0.00 84 1013.7
20260831153535 71 249 0.9 3.5 0.00 0.00 0.00 85 1013.6
20260831153058 71 0 0.0 2.6 0.00 0.00 0.00 85 1013.6
20260831152538 71 216 1.7 2.6 0.00 0.00 0.00 85 1013.6
20260831152035 70 205 0.9 2.6 0.00 0.00 0.00 85 1013.5
20260831151615 70 0 0.0 1.7 0.00 0.00 0.00 85 1013.5
20260831151035 70 0 0.0 0.0 0.00 0.00 0.00 86 1013.5
20260831150538 70 0 0.0 1.7 0.00 0.00 0.00 86 1013.5
20260831150100 70 0 0.0 1.7 0.00 0.00 0.00 86 1013.5
20260831145537 69 0 0.0 1.7 0.00 0.00 0.00 86 1013.4
20260831145036 69 0 0.0 1.7 0.00 0.00 0.00 86 1013.4
20260831144600 69 0 0.0 0.9 0.00 0.00 0.00 86 1013.4
20260831144036 69 0 0.0 0.9 0.00 0.00 0.00 86 1013.4
20260831143533 69 0 0.0 0.9 0.00 0.00 0.00 86 1013.4
20260831143054 69 0 0.0 0.9 0.00 0.00 0.00 86 1013.4
20260831142536 69 0 0.0 0.9 0.00 0.00 0.00 86 1013.3
20260831142035 69 0 0.0 0.0 0.00 0.00 0.00 86 1013.2
20260831141602 69 0 0.0 0.9 0.00 0.00 0.00 86 1013.2
20260831141038 69 0 0.0 0.9 0.00 0.00 0.00 86 1013.1
20260831140534 69 0 0.0 0.9 0.00 0.00 0.00 86 1013.0
20260831140100 69 0 0.0 0.9 0.00 0.00 0.00 85 1012.9
20260831135536 69 0 0.0 0.0 0.00 0.00 0.00 85 1012.8
20260831135039 69 0 0.0 0.0 0.00 0.00 0.00 85 1012.7
20260831134557 69 0 0.0 0.0 0.00 0.00 0.00 85 1012.7
20260831134035 69 0 0.0 0.0 0.00 0.00 0.00 85 1012.6
20260831133535 69 0 0.0 0.0 0.00 0.00 0.00 85 1012.5
20260831133058 69 0 0.0 0.0 0.00 0.00 0.00 85 1012.5
20260831132535 69 0 0.0 1.7 0.00 0.00 0.00 85 1012.4
20260831132035 69 0 0.0 1.7 0.00 0.00 0.00 85 1012.3
20260831131555 69 201 0.0 1.7 0.00 0.00 0.00 84 1012.3
20260831131035 70 0 0.0 1.7 0.00 0.00 0.00 85 1012.3
20260831130536 70 0 0.0 0.0 0.00 0.00 0.00 85 1012.2
20260831125535 70 0 0.0 0.9 0.00 0.00 0.00 85 1012.3
20260831125032 70 0 0.0 0.0 0.00 0.00 0.00 85 1012.2
20260831124604 70 0 0.0 0.0 0.00 0.00 0.00 85 1012.2
20260831124032 70 0 0.0 0.0 0.00 0.00 0.00 85 1012.2
20260831123535 70 0 0.0 0.0 0.00 0.00 0.00 85 1012.2
20260831123057 70 0 0.0 0.0 0.00 0.00 0.00 85 1012.2
20260831122533 70 0 0.0 0.0 0.00 0.00 0.00 85 1012.3
20260831122034 70 0 0.0 0.0 0.00 0.00 0.00 85 1012.2
20260831121603 70 0 0.0 0.0 0.00 0.00 0.00 85 1012.2
20260831121035 70 0 0.0 0.0 0.00 0.00 0.00 85 1012.2
20260831120535 70 0 0.0 0.0 0.00 0.00 0.00 85 1012.1
20260831120057 70 0 0.0 0.0 0.00 0.00 0.00 86 1012.1
20260831115535 70 0 0.0 0.0 0.00 0.00 0.00 86 1012.2
20260831115036 70 0 0.0 0.9 0.00 0.00 0.00 86 1012.2
20260831114558 70 0 0.0 0.9 0.00 0.00 0.00 86 1012.2
20260831114036 70 0 0.0 0.0 0.00 0.00 0.00 86 1012.2
20260831113535 70 0 0.0 0.0 0.00 0.00 0.00 86 1012.2
20260831113105 70 0 0.0 0.9 0.00 0.00 0.00 86 1012.2
20260831112536 70 0 0.0 0.9 0.00 0.00 0.00 87 1012.2
20260831112043 70 0 0.0 0.9 0.00 0.00 0.00 87 1012.3
20260831111600 70 0 0.0 0.9 0.00 0.00 0.00 87 1012.2
20260831111035 70 0 0.0 0.9 0.00 0.00 0.00 87 1012.3
20260831110535 70 0 0.0 0.9 0.00 0.00 0.00 87 1012.4
20260831110057 70 0 0.0 0.9 0.00 0.00 0.00 87 1012.3
20260831105535 70 0 0.0 0.9 0.00 0.00 0.00 87 1012.2
20260831105032 70 0 0.0 0.9 0.00 0.00 0.00 87 1012.3
20260831104607 70 0 0.0 0.9 0.00 0.00 0.00 87 1012.3
20260831104032 70 0 0.0 2.6 0.00 0.00 0.00 88 1012.3
20260831103535 70 0 0.0 2.6 0.00 0.00 0.00 88 1012.4
20260831103053 70 0 0.9 2.6 0.00 0.00 0.00 87 1012.4
20260831102535 70 0 0.0 1.7 0.00 0.00 0.00 88 1012.4
20260831102034 70 0 0.0 3.5 0.00 0.00 0.00 88 1012.4
20260831101602 70 0 0.0 4.3 0.00 0.00 0.00 88 1012.3
20260831101036 70 242 1.7 4.3 0.00 0.00 0.00 88 1012.4
20260831100534 70 0 0.0 5.2 0.00 0.00 0.00 88 1012.3
20260831100108 70 0 0.9 5.2 0.00 0.00 0.00 88 1012.4
20260831095535 70 225 0.9 4.3 0.00 0.00 0.00 89 1012.4
20260831095035 70 192 0.9 2.6 0.00 0.00 0.00 89 1012.4
20260831094553 70 0 0.0 2.6 0.00 0.00 0.00 89 1012.4
20260831094035 70 196 0.0 2.6 0.00 0.00 0.00 89 1012.4
20260831093536 70 215 0.0 1.7 0.00 0.00 0.00 89 1012.4
20260831093053 70 0 0.0 1.7 0.00 0.00 0.00 89 1012.4
20260831092535 70 0 0.0 1.7 0.00 0.00 0.00 90 1012.4
20260831092040 70 185 0.0 1.7 0.00 0.00 0.00 90 1012.4
20260831091559 70 180 0.0 0.9 0.00 0.00 0.00 90 1012.4
20260831091035 70 180 0.0 0.9 0.00 0.00 0.00 90 1012.5
20260831090535 70 0 0.0 1.7 0.00 0.00 0.00 90 1012.4
20260831090056 70 0 0.0 1.7 0.00 0.00 0.00 90 1012.4
20260831085535 70 0 0.0 0.9 0.00 0.00 0.00 90 1012.4
20260831085036 70 0 0.0 0.9 0.00 0.00 0.00 89 1012.4
20260831084612 70 0 0.0 0.9 0.00 0.00 0.00 89 1012.5
20260831084033 70 0 0.0 0.9 0.00 0.00 0.00 89 1012.5
20260831083539 70 0 0.0 1.7 0.00 0.00 0.00 89 1012.5
20260831083104 70 194 0.0 1.7 0.00 0.00 0.00 89 1012.5
20260831082539 70 190 0.0 1.7 0.00 0.00 0.00 89 1012.5
20260831082035 70 0 0.0 0.9 0.00 0.00 0.00 90 1012.6
20260831081556 70 0 0.0 0.9 0.00 0.00 0.00 90 1012.5